Location: Ciula Mare
(45.6000°N, 22.8167°E)
Time: 07:56:09
(UTC+00:00)

Cosmos 1844 - Visible Passes

Search period start: 24 September 2023 00:00
Search period end: 04 October 2023 00:00
Orbit: 821 x 868 km, 70.9° (Epoch: 23 September)

Date Brightness Start Highest point End Pass type
(mag) Time Alt. Az. Time Alt. Az. Time Alt. Az.
24 Sep 4.6 17:43:18 10° NW 17:48:54 52° WSW 17:54:27 10° S visible
25 Sep 4.6 17:29:10 10° NW 17:34:47 53° WSW 17:40:22 10° S visible
26 Sep 4.5 17:15:01 10° NW 17:20:40 55° WSW 17:26:16 10° S visible
27 Sep 4.5 17:00:52 10° NNW 17:06:33 57° WSW 17:12:09 10° S visible
28 Sep 4.5 16:46:44 10° NNW 16:52:26 59° WSW 16:58:03 10° S visible
29 Sep 4.5 16:32:35 10° NNW 16:38:19 61° WSW 16:43:57 10° S visible
